ECMWFFLT2_500_spd_102.txt.gz
Wind_Speed
10 10 9 8 8 8 8 9 10 12 12 12 12 12 12 12 13 13 12 11 11 11 11 10 9 8 8 8 8 9 8 8 9 9 10 11 12 13 13 13 13 12 12 12 13 14 15 15 15 15 15 15 15 14 14 14 14 14 14 14 14 14
11 10 10 9 8 8 9 10 10 11 11 11 10 10 10 10 11 11 11 12 11 10 10 10 9 9 8 8 9 9 10 10 10 10 10 12 13 14 14 14 14 14 14 14 14 14 15 16 17 17 17 17 18 17 16 15 15 15 15 15 15 15
12 11 11 10 8 8 9 10 10 10 10 9 8 8 8 9 10 10 11 11 11 9 9 9 9 9 8 8 8 8 9 10 10 10 11 12 14 14 15 15 15 15 15 14 14 15 15 16 17 18 18 18 19 20 19 18 18 17 16 15 15 15
13 12 11 10 9 9 10 10 10 9 8 7 6 6 7 9 10 10 11 11 10 10 9 8 9 9 8 8 8 7 8 9 9 10 11 12 13 13 14 15 16 16 16 15 15 15 15 16 16 17 18 19 20 21 22 21 21 20 19 18 17 16
13 13 12 10 10 10 10 10 9 8 7 6 5 6 7 9 10 11 11 10 10 10 9 8 8 8 8 8 8 7 7 8 9 10 11 12 12 13 13 14 16 17 17 17 16 16 16 16 16 17 17 19 20 21 23 23 23 23 22 21 19 18
14 13 12 11 11 11 10 10 9 8 7 6 5 6 7 9 10 11 11 11 10 9 9 8 8 8 8 9 9 8 8 8 9 10 11 12 13 13 13 14 15 16 17 18 17 17 17 17 17 17 17 18 19 21 23 24 25 25 25 23 22 20
14 13 13 13 12 12 11 10 9 8 7 6 6 6 8 9 10 10 11 11 10 9 9 8 8 8 8 9 10 10 9 9 10 11 12 13 13 13 13 13 13 14 15 16 17 18 18 18 17 17 18 18 19 20 22 23 25 26 27 25 24 23
14 14 14 14 13 12 11 11 10 9 8 7 7 7 8 9 10 11 11 10 10 9 9 8 9 9 9 10 10 10 10 11 11 12 12 12 12 12 12 12 12 12 13 15 17 18 19 19 19 18 18 19 20 20 22 23 24 26 27 27 26 25
15 14 14 14 14 13 12 11 11 10 9 8 8 7 8 9 10 11 10 9 9 8 8 8 9 9 10 10 10 10 11 11 11 11 11 11 12 11 11 11 11 11 12 14 15 18 19 20 20 20 20 20 20 21 21 22 24 25 27 28 27 26
16 15 15 15 15 14 13 12 11 10 10 10 9 8 8 9 10 10 9 8 8 8 8 8 9 10 11 11 11 11 11 11 11 11 12 12 12 12 11 10 10 11 12 13 14 16 18 19 19 20 21 21 21 21 21 22 23 24 26 27 27 27
17 17 16 16 15 14 13 13 12 11 11 11 10 9 8 9 9 9 8 7 7 8 9 9 10 11 11 11 10 11 11 11 12 12 13 13 13 12 12 11 11 12 12 13 14 15 17 18 19 19 20 21 22 22 22 22 23 24 25 26 27 27
18 18 17 16 15 15 14 14 13 12 12 11 10 10 9 9 9 9 8 7 7 8 9 10 10 10 9 9 9 10 11 12 13 13 14 14 14 14 13 13 13 13 13 13 14 15 17 18 19 19 20 21 22 23 23 22 22 23 25 27 27 27
17 18 18 16 16 15 15 14 14 13 13 12 11 11 10 9 9 9 8 7 8 8 9 9 9 9 9 8 9 10 11 12 13 14 14 15 15 15 15 15 15 15 14 14 14 15 17 18 19 19 20 21 22 23 23 23 22 22 24 26 28 28
17 18 18 17 16 16 15 15 14 14 14 13 12 11 11 10 10 9 9 8 8 8 8 9 9 10 10 10 11 13 14 15 15 15 15 15 16 16 16 17 17 17 16 16 16 17 17 18 19 19 20 21 22 22 23 24 23 22 23 25 27 28
18 18 18 18 17 16 15 14 14 14 14 14 13 12 12 11 11 11 10 10 10 9 9 9 10 11 13 14 16 17 18 18 17 17 17 17 17 17 18 18 18 18 18 18 18 18 19 19 19 19 20 21 22 23 23 24 24 24 24 24 26 27
19 19 18 18 16 15 14 14 14 14 15 14 13 13 13 13 12 12 12 11 11 11 11 11 12 13 14 16 17 18 19 19 18 18 18 18 19 19 19 19 19 19 19 19 20 20 20 21 21 21 21 21 22 24 25 25 25 26 26 26 26 26
18 18 18 17 16 14 14 14 14 15 15 15 14 15 15 14 14 13 13 13 13 13 13 13 13 14 15 15 16 17 17 17 17 18 18 19 19 19 19 19 20 20 21 21 21 21 22 22 23 23 23 22 23 24 25 26 26 27 28 28 28 27
17 17 17 16 15 14 14 15 15 15 15 15 15 15 15 15 15 15 15 15 15 15 15 16 16 16 16 15 15 15 15 15 15 16 17 18 19 19 20 20 20 21 21 22 22 22 23 23 24 24 24 24 24 24 25 26 26 27 28 29 29 28
17 17 17 16 16 15 15 15 15 15 15 16 16 15 15 15 15 16 17 17 17 17 18 18 18 18 17 16 15 14 15 15 15 15 16 17 18 19 20 20 20 21 22 22 22 23 23 24 25 25 25 25 26 26 27 27 27 28 28 29 30 29
18 17 18 17 16 16 15 15 15 15 15 15 15 15 15 16 16 17 18 18 19 19 19 20 20 20 19 18 17 16 16 16 16 17 17 18 18 19 20 21 22 22 23 23 23 24 24 25 25 25 26 26 26 28 28 28 29 29 28 28 29 29
18 18 18 17 17 17 16 16 16 15 15 15 15 16 16 16 17 17 18 19 19 20 21 21 21 21 21 20 19 18 18 17 18 18 19 19 19 20 22 22 23 24 25 25 25 25 25 26 26 26 26 26 26 27 28 29 29 29 28 27 28 29
18 19 19 18 18 17 17 17 16 16 16 16 16 17 17 17 17 18 18 19 19 20 21 22 22 22 22 22 21 21 20 20 20 20 21 21 21 22 23 23 24 25 26 26 26 26 26 27 27 27 26 26 26 26 27 28 28 28 27 26 26 28
18 19 20 19 19 18 18 18 17 17 17 17 18 18 18 18 18 18 18 19 19 20 21 22 23 23 23 23 22 22 22 22 22 22 23 23 23 23 24 24 25 25 26 26 26 26 27 27 27 27 27 26 26 26 26 27 26 27 27 26 25 26
20 21 21 20 19 19 19 19 19 19 19 20 19 19 19 18 18 18 18 18 19 20 21 22 22 23 23 24 24 24 23 23 23 23 24 24 24 24 25 25 26 26 26 27 27 27 27 27 27 27 27 27 26 26 26 26 25 26 27 26 26 25
20 20 20 20 19 20 20 19 19 19 20 20 20 19 19 18 18 18 18 18 19 20 20 21 22 22 23 24 24 25 25 25 25 25 25 25 25 25 26 26 27 27 27 27 27 27 28 28 28 28 28 27 27 26 26 26 26 26 27 27 27 27
20 19 19 19 19 19 19 18 18 18 18 18 18 18 18 18 18 18 18 18 19 19 20 21 22 22 22 23 23 25 25 26 26 26 26 26 27 27 27 27 27 27 28 28 28 28 28 28 28 28 28 28 27 27 27 27 26 25 26 27 28 28
19 19 18 18 18 17 17 16 16 16 17 17 18 18 18 18 18 17 18 18 19 19 20 21 21 22 22 23 24 25 26 26 27 27 27 27 28 28 28 28 28 28 28 28 28 28 29 29 29 29 28 28 28 28 28 28 27 25 24 26 28 28
19 18 17 17 16 16 16 16 16 17 17 18 18 18 17 17 17 17 18 18 19 19 20 20 21 22 23 23 24 25 26 27 27 28 28 28 29 29 29 29 29 29 29 29 29 29 29 29 29 29 29 29 29 29 29 28 28 26 25 24 26 28
20 19 17 17 17 17 18 18 18 18 18 18 18 17 17 17 17 18 18 19 20 20 20 21 22 22 23 24 24 25 26 27 27 28 28 29 29 30 30 31 31 31 31 30 30 30 30 29 29 30 30 30 31 30 30 29 29 27 26 25 24 26
19 19 18 18 18 19 19 18 18 18 18 18 18 17 17 17 18 19 20 20 21 21 22 22 22 23 24 24 25 25 26 26 27 28 28 29 30 30 31 31 32 32 32 32 32 31 31 30 30 30 31 31 32 32 31 31 30 29 28 27 25 25
18 18 18 18 19 19 19 18 18 18 18 18 18 18 18 19 20 21 21 22 22 23 23 23 23 23 24 24 25 25 26 26 27 28 29 29 30 30 31 32 32 33 33 33 33 32 32 32 31 31 32 32 33 33 32 32 32 31 30 29 27 26
17 17 17 18 18 19 19 18 18 18 18 19 19 19 20 20 21 22 23 24 24 24 25 24 24 24 24 25 25 26 27 27 28 28 29 30 30 31 31 32 32 33 34 34 34 34 33 33 33 33 33 33 33 34 34 34 33 33 33 31 30 28
16 16 17 17 17 17 17 18 18 18 19 19 20 20 21 22 22 23 24 25 25 25 25 25 25 25 25 26 26 27 27 28 29 29 30 30 31 32 32 32 33 33 34 35 35 35 35 34 34 34 34 34 34 34 35 35 35 35 35 34 33 32
16 17 17 16 17 17 18 18 19 19 19 20 21 21 22 23 24 25 25 26 26 26 26 26 26 27 27 27 27 27 28 29 29 30 31 31 32 33 33 34 34 34 34 35 36 36 36 36 36 36 35 35 35 35 36 36 36 37 37 36 36 35
17 17 18 17 17 18 19 19 20 20 20 21 21 22 23 24 25 26 27 27 27 27 28 29 29 29 29 29 29 29 29 30 30 31 31 32 33 33 34 35 35 35 35 35 36 36 37 38 38 38 37 37 37 36 36 36 37 37 37 37 38 37
17 18 19 19 19 19 19 20 21 21 22 22 23 23 24 26 27 27 28 29 29 30 30 31 32 32 32 31 31 31 32 32 32 32 32 33 33 34 34 35 36 36 37 37 37 37 38 38 39 39 39 39 38 38 38 37 38 38 38 38 38 38
18 19 20 20 20 20 20 21 21 22 23 24 25 26 27 28 28 29 30 31 31 32 33 33 34 34 34 34 33 33 34 34 35 35 34 34 34 35 35 36 36 37 38 38 38 38 38 39 39 40 40 40 40 40 40 39 39 39 39 39 39 39

ECMWFFLT2_500_spd_105.txt.gz
Wind_Speed
14 13 13 13 13 12 11 11 10 10 10 11 11 11 10 10 11 11 11 11 11 11 11 10 10 9 10 10 10 11 11 10 11 12 13 12 12 13 13 12 12 12 13 13 14 14 15 15 15 15 16 16 18 18 19 19 20 20 20 19 19 19
14 14 14 14 13 12 11 11 10 10 10 10 10 10 9 9 10 10 10 11 10 10 10 10 9 9 9 10 9 10 10 10 10 12 13 13 13 14 13 12 12 12 12 13 13 13 14 15 15 15 15 16 17 18 19 20 20 21 21 21 20 20
15 15 14 14 13 12 11 10 10 10 10 10 9 8 8 8 10 10 10 10 10 10 10 9 9 8 8 8 9 9 9 9 9 11 12 13 14 14 14 14 13 12 12 13 13 13 13 15 15 15 15 16 16 17 19 20 21 21 22 22 22 21
15 15 14 14 13 12 11 11 11 10 9 9 8 7 7 8 9 10 10 10 10 9 9 9 8 7 7 7 8 8 8 9 9 10 11 12 14 15 15 15 14 14 13 13 13 13 13 14 15 15 16 16 16 16 18 19 21 21 22 22 23 23
15 15 15 14 14 13 12 12 12 11 9 9 8 8 8 9 9 10 11 11 10 9 9 8 8 7 6 7 7 8 8 9 10 10 11 12 14 15 15 16 15 15 14 13 12 12 13 14 15 15 16 16 16 17 18 19 20 21 21 22 23 23
15 16 15 15 14 14 13 13 12 11 10 9 9 9 8 9 10 10 11 11 10 10 9 8 8 7 6 6 7 8 9 9 10 10 11 12 13 14 14 15 15 15 15 14 13 13 13 14 15 16 16 17 17 17 18 19 19 20 21 21 22 23
16 16 16 15 15 15 14 14 13 12 11 10 10 10 9 9 10 10 11 11 11 10 9 8 8 7 7 7 7 8 9 9 10 10 11 11 12 12 13 14 14 15 15 16 16 15 14 14 15 15 16 17 17 17 17 18 19 20 21 21 21 22
16 16 16 16 16 16 16 16 15 13 12 12 12 11 11 10 10 10 10 10 10 10 8 7 7 7 8 8 8 9 9 9 9 9 9 10 11 12 13 13 14 15 16 17 18 18 18 17 16 16 17 17 17 17 17 18 19 19 20 20 20 20
17 17 17 17 17 18 18 17 16 15 14 13 14 13 12 11 10 9 10 9 9 9 8 7 8 9 9 9 9 10 10 9 9 9 9 10 11 11 12 13 14 15 16 18 19 20 20 20 19 19 19 19 19 19 18 19 19 19 20 20 19 19
19 19 18 19 19 19 19 18 18 17 16 15 15 15 13 12 10 9 9 8 8 8 8 8 9 10 10 10 10 10 9 9 10 9 9 10 10 11 12 12 13 14 15 17 18 20 21 21 21 21 22 22 21 21 21 21 21 20 20 21 21 20
21 21 21 21 20 20 20 19 19 18 17 17 16 16 14 13 11 10 9 8 8 8 8 9 10 11 11 11 11 10 9 9 9 10 10 11 11 11 12 12 13 14 14 16 17 19 21 22 22 22 23 24 24 23 22 23 23 22 21 22 22 21
22 23 23 23 22 22 21 21 20 20 19 18 18 17 15 14 12 11 9 8 8 8 8 9 10 10 11 11 11 11 11 10 11 12 12 12 12 12 13 14 14 14 15 15 16 18 20 21 22 23 23 23 24 25 25 24 24 24 23 23 23 22
24 25 25 24 24 23 22 22 21 21 21 20 19 16 15 14 12 11 10 8 8 8 9 10 10 10 11 11 12 12 13 14 15 15 15 15 14 14 14 15 15 15 16 16 17 19 20 20 21 23 23 23 24 25 26 26 25 25 24 25 25 24
27 27 27 26 26 25 24 23 23 23 22 20 20 18 16 14 12 12 11 9 9 9 9 10 10 11 11 12 13 15 16 17 17 18 18 17 16 16 15 16 17 17 17 17 18 19 20 21 22 23 23 23 24 25 26 27 27 26 25 25 25 25
29 29 28 26 26 25 24 24 24 23 20 19 19 19 17 14 11 11 12 11 11 10 10 10 11 11 12 13 14 15 16 17 17 17 18 17 17 17 16 16 17 17 18 18 19 20 21 21 22 23 22 23 25 25 26 26 26 27 27 26 25 26
32 31 28 26 25 25 25 25 23 19 17 16 17 17 15 13 13 12 13 13 12 12 12 12 12 13 13 14 15 16 16 16 16 16 16 16 16 17 17 17 17 18 18 18 19 20 21 22 23 23 23 24 25 25 26 26 26 27 28 27 26 27
32 30 28 26 25 23 22 21 20 19 18 17 16 15 14 15 15 14 14 14 13 13 13 14 14 15 15 16 16 16 16 16 16 15 15 16 16 16 16 16 17 18 18 18 19 19 20 22 23 23 23 24 25 25 26 26 25 26 27 27 28 28
30 28 27 26 24 21 20 18 18 20 21 20 18 17 17 16 15 14 14 14 14 14 15 16 16 17 17 17 18 18 17 16 16 15 15 16 16 17 17 17 17 18 18 18 19 20 20 21 22 23 23 24 24 25 26 26 25 25 25 26 27 27
25 26 26 24 20 18 19 21 20 19 18 18 16 15 14 13 14 15 15 14 15 16 16 17 18 18 19 19 19 19 18 17 17 17 17 17 18 18 18 18 18 18 19 19 20 20 21 21 22 23 23 24 24 25 26 26 25 24 25 26 26 26
20 21 22 21 18 17 18 19 19 17 14 13 13 13 12 13 16 16 15 15 16 17 18 19 19 19 19 20 20 20 20 19 19 19 19 19 19 19 19 19 20 20 21 21 22 22 22 22 23 23 24 24 25 25 26 26 25 25 25 26 26 26
19 18 20 21 20 20 19 17 15 14 14 15 15 15 15 16 16 15 15 16 18 18 19 19 19 19 20 20 20 20 20 21 21 20 20 21 20 20 20 21 21 22 23 23 24 24 24 24 24 24 25 25 25 26 27 27 26 25 24 24 25 26
19 17 19 20 18 18 18 17 16 15 16 17 16 15 14 15 15 16 17 17 18 19 20 20 20 20 19 20 20 20 20 21 21 21 22 22 23 22 22 22 23 24 24 25 25 26 26 26 25 25 25 25 26 27 27 27 27 26 25 24 24 25
18 15 15 15 15 16 15 14 15 17 17 17 17 16 16 17 18 18 18 18 19 20 20 20 20 20 20 20 20 20 21 21 21 22 23 24 24 25 25 24 25 26 26 26 26 27 27 27 27 27 26 26 26 27 28 27 27 28 27 26 26 26
16 14 14 13 13 14 14 13 14 17 18 18 19 20 20 20 20 20 19 19 20 20 20 21 20 20 20 20 20 20 21 22 22 23 24 25 25 26 26 27 27 27 28 28 28 28 29 29 29 28 28 28 28 28 28 28 27 28 28 28 28 27
17 16 16 15 14 13 15 16 17 18 19 20 20 21 21 21 21 21 21 20 21 20 20 20 20 20 20 21 21 21 22 22 22 23 23 25 26 27 27 28 28 29 29 29 29 30 30 30 30 30 30 30 29 29 29 29 28 28 28 29 29 28
15 14 14 15 15 16 17 17 18 19 20 21 21 21 21 20 21 21 21 21 21 21 20 20 20 20 20 21 21 22 23 22 22 23 23 24 25 27 28 29 29 30 30 31 31 31 31 31 31 31 31 31 31 30 30 29 29 28 29 30 30 29
15 16 17 16 16 17 17 18 19 20 20 21 21 20 20 20 20 20 20 20 20 20 21 21 20 20 21 21 22 23 23 24 24 24 24 25 25 26 28 29 30 31 31 32 32 32 32 32 32 32 32 32 32 32 31 31 30 29 28 29 31 30
19 19 19 18 17 17 18 19 20 20 20 20 20 20 20 19 19 19 19 19 19 20 20 21 21 21 22 22 23 24 24 25 26 26 26 26 27 27 28 29 30 31 31 32 32 33 33 33 33 34 33 33 33 33 32 32 32 31 29 29 31 32
18 19 18 18 18 18 19 19 20 20 21 21 21 21 21 20 20 20 19 19 18 19 20 20 21 22 22 23 24 25 25 26 27 27 28 28 28 29 29 29 30 31 31 32 32 32 33 33 33 34 34 34 34 34 34 34 33 33 32 31 31 32
18 18 18 18 19 19 20 20 21 21 21 22 22 22 22 21 21 20 19 19 19 19 20 21 22 22 23 24 24 25 26 27 27 28 28 29 29 30 30 30 31 32 33 33 33 34 34 34 34 34 34 34 34 35 35 35 35 34 34 33 32 33
19 19 19 19 19 20 21 20 21 21 21 22 22 21 21 21 21 20 20 21 20 20 21 21 22 23 24 24 24 25 25 26 26 27 28 29 29 30 31 31 32 32 33 34 35 35 36 35 35 35 35 35 35 35 35 35 35 35 35 35 34 34
19 19 19 19 20 20 20 20 20 21 21 21 21 21 21 21 21 21 22 22 22 22 22 22 23 23 24 24 24 24 25 25 26 26 27 28 29 30 30 31 32 32 33 34 35 36 37 37 37 37 37 37 36 36 37 37 36 36 36 36 35 34
19 18 18 19 19 19 19 19 20 20 20 20 21 21 21 22 22 23 23 23 23 23 23 24 24 24 24 24 25 25 25 25 26 26 27 27 28 29 30 31 32 32 33 34 35 36 37 38 38 39 38 38 39 38 38 38 38 38 38 38 37 36
18 18 18 18 18 18 18 19 20 20 20 20 21 21 22 23 23 24 24 25 25 26 26 26 26 26 26 26 27 27 27 27 27 27 28 28 29 30 31 31 32 33 34 34 36 36 37 38 39 40 40 40 40 40 40 40 40 40 40 40 39 39
19 18 18 18 18 18 18 19 20 20 21 22 22 22 23 23 24 24 25 26 27 28 28 28 29 29 29 29 29 30 30 30 29 29 29 30 31 31 32 33 33 34 35 35 36 37 38 39 39 40 41 41 41 41 42 42 42 42 43 42 42 41
20 19 18 18 18 18 19 20 21 21 22 23 23 24 24 24 25 25 26 28 29 30 31 31 31 31 32 31 32 32 32 32 32 32 32 32 33 33 34 35 36 37 37 38 38 39 39 39 40 40 41 41 42 42 42 42 42 43 44 44 44 44
19 19 18 18 18 19 19 20 21 22 23 23 24 24 24 25 26 26 27 28 30 31 32 33 33 33 33 33 34 34 34 34 34 34 34 35 35 35 36 37 38 39 40 41 41 41 41 41 41 41 42 42 43 43 43 42 43 43 44 44 45 46

ECMWFFLT2_500_spd_111.txt.gz
Wind_Speed
16 16 16 15 16 16 16 16 16 16 14 12 12 12 12 12 12 12 11 12 13 13 13 13 13 12 12 11 10 9 8 8 8 8 7 7 7 7 8 8 9 9 10 10 10 10 10 10 10 11 11 11 11 11 11 11 11 12 13 12 11 11
16 16 16 16 17 17 17 17 17 16 15 13 12 13 12 12 12 12 12 12 13 13 13 13 13 13 12 11 10 9 8 7 7 8 8 7 7 7 8 9 9 9 9 9 9 9 10 10 11 11 12 12 12 12 11 11 11 11 12 13 12 12
17 17 17 17 18 18 17 17 17 16 15 14 14 13 13 13 13 12 11 11 12 13 13 13 13 13 12 11 10 10 9 8 7 7 7 8 8 8 9 9 9 8 8 8 8 9 9 10 10 11 12 12 12 12 12 11 10 10 12 13 13 13
17 18 18 18 18 18 18 17 17 16 15 15 15 14 14 14 13 12 11 10 11 13 14 14 13 13 12 11 10 10 10 9 8 8 7 8 9 9 9 9 8 8 8 8 8 9 9 9 9 10 11 12 12 12 12 11 10 10 11 12 12 12
18 18 19 19 19 18 17 17 17 17 16 16 16 15 15 14 13 12 10 10 11 13 14 14 14 13 12 11 10 10 10 10 10 9 8 7 7 8 8 8 8 7 7 8 9 9 10 10 10 11 11 12 12 13 13 12 11 10 10 12 12 12
19 19 19 20 18 18 18 17 18 18 17 17 17 16 15 14 13 12 11 11 11 12 13 14 14 13 12 10 9 9 10 10 10 10 9 8 7 7 7 7 7 7 7 8 9 9 10 12 12 13 13 13 13 13 13 13 12 11 11 12 13 13
20 20 19 19 18 17 18 18 19 19 19 18 17 16 15 14 14 13 12 11 11 11 12 13 13 13 11 10 10 10 10 10 10 10 9 9 8 7 7 7 6 6 7 8 9 9 10 11 13 14 15 15 15 15 15 16 15 13 13 13 13 14
19 19 19 18 17 17 18 19 20 19 19 18 17 16 15 15 15 14 12 11 10 11 12 12 12 12 11 11 11 10 10 10 9 9 9 9 9 9 9 9 8 8 8 8 9 10 11 11 12 13 14 15 16 16 17 17 17 16 13 12 13 14
16 18 18 17 17 18 19 20 20 20 19 17 16 16 15 16 16 14 12 11 11 11 11 11 11 10 10 10 11 10 10 10 9 8 9 10 10 11 11 11 11 11 11 11 12 12 12 12 13 14 14 14 14 15 16 16 17 18 15 12 12 15
16 17 17 17 18 19 20 20 20 19 17 16 17 17 17 17 16 15 13 12 12 12 12 11 10 9 9 8 9 9 8 8 8 9 10 11 12 12 12 12 12 12 13 13 13 13 13 13 13 14 15 17 16 16 16 16 17 18 18 15 15 16
17 17 17 19 19 20 20 19 18 17 17 17 18 18 18 18 16 15 14 12 13 14 13 11 10 9 8 7 7 7 7 7 8 9 11 11 12 13 13 13 13 12 13 13 13 13 14 14 14 14 14 16 18 18 18 17 17 19 20 19 17 17
18 18 19 21 20 20 19 18 17 17 18 19 18 18 18 18 17 15 14 14 14 15 13 11 10 9 7 6 6 6 6 7 8 10 10 11 11 11 12 12 12 12 12 13 14 14 15 15 16 16 15 15 16 18 19 18 18 20 21 20 18 17
20 20 21 21 20 19 18 18 19 19 20 20 19 19 19 19 17 16 15 15 14 15 14 13 11 9 8 6 5 6 7 7 8 9 9 9 10 10 11 11 11 12 12 13 14 14 15 15 16 16 16 16 15 16 18 18 19 19 20 20 19 18
21 21 21 20 19 20 20 20 21 22 22 21 21 21 21 20 18 18 17 15 15 15 14 14 13 10 9 6 5 6 7 8 8 8 8 9 9 10 11 11 12 12 13 13 14 14 15 15 15 16 16 16 16 16 17 18 19 20 20 21 21 19
22 21 22 21 20 21 22 21 22 23 22 22 23 23 22 21 20 19 17 15 15 15 15 17 16 13 10 7 6 6 7 8 8 8 9 9 10 10 11 11 11 12 12 13 13 14 14 15 15 15 16 17 17 18 18 18 18 19 20 21 21 20
22 22 22 21 22 23 23 22 23 23 22 23 24 24 25 24 21 19 17 15 15 16 16 18 17 14 10 9 8 8 9 9 9 9 10 10 10 11 11 11 11 11 12 12 13 13 14 14 15 15 16 16 17 18 19 19 19 19 19 20 21 21
23 23 23 22 23 24 24 24 24 24 23 24 24 23 24 23 21 19 17 16 17 17 18 17 15 11 9 10 11 10 9 9 9 11 12 12 12 12 12 11 11 12 12 12 12 13 14 15 16 16 17 17 17 18 19 19 20 20 19 20 20 21
25 24 23 23 25 26 26 25 25 25 25 26 25 23 22 20 19 18 17 17 18 17 16 14 12 10 9 11 11 9 8 8 10 12 13 13 13 13 12 12 12 13 13 13 14 14 15 16 17 18 18 18 18 19 20 21 21 21 21 21 21 21
26 26 24 23 25 27 27 26 25 24 24 25 24 23 22 19 18 17 17 17 17 15 13 11 10 9 10 10 9 8 8 9 11 13 14 15 14 14 14 14 14 15 15 16 16 17 18 18 18 19 20 20 20 20 21 22 22 23 23 23 23 23
27 27 26 24 25 27 26 26 26 25 24 24 23 22 20 18 17 17 15 13 13 13 11 11 9 7 9 9 7 8 8 10 13 14 15 16 15 15 15 15 16 17 17 18 19 19 19 20 21 22 23 23 23 23 23 24 25 25 25 25 25 24
27 27 26 25 26 26 26 26 27 26 24 24 22 21 20 18 17 16 13 11 10 10 8 7 6 6 8 8 8 9 11 13 14 15 16 16 16 16 17 18 18 19 20 20 20 21 21 22 22 23 24 25 25 25 25 26 27 28 28 28 27 26
27 27 25 25 27 27 27 26 27 26 25 23 21 19 19 18 18 18 16 12 8 6 5 5 5 6 7 9 10 12 13 14 15 16 17 17 18 18 18 19 20 20 21 22 22 23 23 23 24 24 25 26 27 27 27 27 28 29 29 29 29 28
27 25 25 25 27 27 25 25 25 24 22 22 20 18 17 16 15 15 12 8 6 6 5 5 6 7 8 10 11 12 14 15 16 17 18 19 19 20 20 20 21 22 22 23 24 24 25 25 25 26 26 27 27 28 29 29 30 30 30 30 30 30
23 23 23 24 25 24 23 23 22 21 20 20 19 16 15 14 13 10 6 3 5 5 6 6 7 8 9 11 12 13 14 15 16 18 19 20 21 21 22 22 23 24 25 25 26 26 27 27 27 28 28 28 28 29 30 30 31 31 31 31 31 31
21 23 22 23 24 22 20 20 19 19 19 18 16 14 13 12 9 4 3 4 5 5 6 7 7 9 10 11 12 14 15 15 17 19 20 21 22 23 24 24 24 25 26 27 28 28 28 29 29 30 30 30 30 30 30 30 31 31 32 33 33 32
21 23 23 22 20 18 16 15 15 16 15 13 13 12 11 8 5 4 5 4 4 5 6 7 8 9 11 12 13 15 16 17 18 20 22 23 24 24 25 25 26 26 26 27 28 30 30 30 31 31 32 32 32 32 31 31 30 30 31 33 34 33
18 19 20 19 17 14 12 10 10 12 12 11 10 9 8 7 6 5 5 4 4 5 6 7 9 10 11 13 14 16 17 18 20 21 23 23 24 25 25 26 26 27 27 28 29 30 31 32 32 32 33 33 33 33 33 32 31 30 30 30 33 35
17 16 16 17 16 14 11 10 9 9 10 9 9 8 10 10 8 6 6 5 5 6 7 8 9 11 12 14 15 17 18 20 21 22 23 24 24 25 25 26 27 27 28 29 29 30 31 32 32 33 34 34 35 35 35 35 34 33 32 30 31 33
18 15 16 16 15 12 10 10 8 7 8 10 12 12 12 9 8 8 7 6 7 8 8 9 11 13 14 15 16 17 19 20 21 22 23 24 24 25 26 27 28 29 29 30 30 30 31 31 32 33 33 34 35 36 36 37 37 37 37 35 33 33
15 14 14 14 14 11 8 9 10 11 11 12 13 12 10 9 9 9 8 8 9 9 10 11 13 15 16 17 18 19 20 21 22 23 24 25 25 26 28 29 30 30 31 31 32 32 33 33 34 34 35 35 36 36 37 37 38 39 40 40 38 36
11 12 12 13 12 11 10 12 14 14 14 12 11 9 8 9 10 9 9 9 10 11 12 13 15 17 18 19 20 21 22 23 24 25 26 27 27 28 29 30 31 32 33 33 34 34 35 36 36 37 37 38 38 38 38 38 39 40 41 41 41 40
11 12 13 14 13 12 12 12 13 13 13 11 10 9 9 10 10 10 10 11 12 13 14 16 17 19 20 21 22 23 24 25 26 27 28 29 30 30 31 32 32 33 34 34 35 36 37 38 39 39 40 40 41 41 42 42 43 43 44 44 44 42
11 12 13 14 13 11 11 12 12 12 12 11 10 10 10 10 10 10 11 13 14 15 17 18 19 20 21 22 23 25 26 27 28 29 30 31 31 32 32 32 33 34 34 35 36 37 38 39 40 41 42 43 43 43 44 46 46 46 46 46 45 44
11 11 11 11 11 11 11 12 12 12 12 12 11 11 11 11 12 12 13 14 16 17 18 19 20 21 22 24 25 26 27 29 30 31 31 31 32 33 33 34 35 36 36 37 38 39 40 41 42 43 44 44 44 45 46 47 47 47 46 45 45 44
11 10 9 9 10 11 12 12 12 12 12 12 11 12 12 13 13 14 14 16 17 18 19 20 21 22 24 25 27 28 29 30 31 31 32 33 33 34 35 37 38 39 40 41 41 42 43 44 45 45 45 45 45 46 46 46 46 45 45 45 44 44
9 8 9 10 11 12 12 12 12 12 12 12 12 13 13 14 15 16 16 17 18 19 20 21 22 24 26 27 28 29 30 30 31 32 33 34 36 37 38 39 41 42 43 44 44 45 45 46 46 46 46 45 45 46 46 45 45 45 45 45 44 44
7 7 9 10 11 12 12 12 12 12 13 13 14 14 15 15 16 17 18 19 19 20 21 23 24 25 27 28 29 29 30 31 32 34 35 37 38 39 41 42 43 44 44 45 45 46 46 46 46 46 45 45 45 45 45 44 44 44 44 44 45 45

ECMWFFLT2_500_spd_114.txt.gz
Wind_Speed
21 20 20 20 20 19 18 16 14 12 12 13 12 12 11 12 13 13 13 12 11 11 12 13 14 14 14 14 13 12 11 9 8 8 7 6 6 6 7 7 7 7 6 6 5 4 4 4 5 5 6 6 6 7 7 8 8 9 9 7 7 8
21 21 21 20 19 18 17 16 13 12 12 13 13 12 13 13 13 13 12 12 11 11 11 12 13 14 14 13 12 11 10 10 9 8 8 7 7 7 7 7 7 6 6 5 5 5 5 6 6 7 7 8 8 7 7 8 9 9 9 8 8 8
21 21 20 19 18 18 18 15 13 13 13 13 13 13 13 14 13 12 12 12 11 11 11 11 12 13 13 12 11 10 9 9 10 9 8 8 7 7 7 7 7 6 6 5 5 6 6 6 7 8 9 9 9 8 6 6 9 9 9 9 9 9
21 21 20 19 19 19 17 14 14 14 13 13 14 14 14 13 12 12 13 13 12 11 11 11 12 12 12 11 10 9 8 9 10 10 9 8 8 7 7 7 7 7 6 6 6 6 7 7 8 9 9 10 10 9 7 5 7 9 9 9 9 8
22 21 20 20 20 19 16 14 14 14 14 14 14 14 14 13 12 13 14 14 12 11 10 10 11 11 11 10 9 9 8 8 9 10 9 9 8 7 7 7 7 7 7 7 8 8 8 8 9 10 10 10 10 9 8 6 6 8 9 9 9 9
23 22 21 21 20 17 14 14 15 15 15 15 15 15 15 14 13 14 15 14 13 11 10 10 10 10 11 10 9 9 9 9 9 9 9 9 8 8 7 7 8 8 8 8 9 9 10 10 9 10 10 10 10 10 10 8 8 9 10 11 10 10
24 23 22 21 19 15 14 15 16 16 16 15 15 16 16 15 15 15 15 14 13 12 11 10 9 10 11 11 10 10 10 10 9 9 8 8 7 7 7 7 8 8 8 9 10 11 11 11 11 11 11 11 11 11 12 11 10 10 11 12 11 11
24 22 23 22 18 15 15 16 16 16 15 15 16 17 17 17 16 15 15 13 13 13 12 10 10 11 12 11 11 10 10 10 10 9 8 8 8 7 7 8 8 8 9 9 10 11 11 12 13 13 13 13 13 14 14 13 12 11 11 12 12 12
21 19 21 21 17 16 16 16 15 15 15 16 17 18 19 17 16 15 15 14 14 13 12 11 11 11 11 11 11 10 9 9 9 9 9 9 9 9 9 9 9 8 8 8 9 9 9 10 12 13 14 13 14 15 16 16 15 13 12 12 13 13
19 19 20 19 17 17 16 15 15 15 16 17 18 18 18 16 16 16 15 15 15 14 12 12 12 12 12 11 11 10 9 8 9 9 10 10 10 10 10 10 10 9 8 8 8 8 8 9 10 11 13 13 13 13 14 16 17 16 14 13 13 14
18 19 20 18 17 17 16 15 15 16 17 17 17 17 16 16 16 16 16 16 15 14 13 13 13 13 12 11 11 10 9 9 9 9 10 11 11 11 11 11 11 10 9 9 9 10 10 10 9 10 11 12 12 12 12 12 13 14 14 14 14 15
19 19 19 17 17 17 16 15 16 17 17 16 16 16 16 17 16 17 17 17 16 15 14 13 14 13 12 12 10 9 8 8 8 9 10 11 11 12 12 12 11 11 11 10 11 11 12 11 10 10 11 12 13 13 13 13 13 13 13 13 14 15
19 17 17 16 16 16 16 17 18 18 17 17 16 16 17 17 17 17 18 18 17 15 15 15 15 14 13 13 11 9 8 7 7 7 8 9 10 11 12 12 12 12 12 12 12 12 13 12 12 11 11 12 13 14 14 15 15 15 15 15 14 14
19 16 16 16 16 16 17 17 19 19 19 18 17 18 19 18 18 18 19 19 18 17 16 16 16 15 14 13 12 11 9 8 8 7 8 9 9 10 11 12 12 12 12 12 12 13 13 13 13 13 13 13 13 14 15 16 17 17 17 17 17 16
22 20 18 17 17 18 18 19 20 20 20 19 19 20 20 19 19 20 20 19 19 19 18 17 16 15 15 16 15 13 11 11 10 9 9 10 10 11 12 13 13 12 12 13 13 14 14 15 15 15 15 15 15 15 16 16 17 18 19 19 19 18
24 23 21 19 19 19 19 19 20 21 21 21 20 20 21 21 20 21 21 20 19 19 19 18 17 17 16 15 15 14 12 12 11 10 10 11 12 13 13 14 13 13 13 14 15 16 16 17 17 17 17 17 17 17 18 19 19 20 20 20 21 20
23 23 22 20 19 19 19 19 20 21 22 22 21 21 21 22 21 21 20 20 20 19 19 18 18 18 16 14 13 12 12 11 10 11 11 12 13 14 14 14 13 13 14 15 16 17 18 18 19 19 19 19 19 20 20 21 21 22 22 22 22 22
22 21 21 20 19 19 19 19 21 21 22 22 22 20 20 21 21 21 20 19 18 18 18 18 18 18 16 14 12 12 11 10 10 10 11 12 13 14 14 13 14 14 15 16 17 17 18 19 20 20 20 20 20 21 22 22 22 23 23 23 23 24
23 22 21 21 21 20 19 20 21 21 21 22 22 21 20 20 20 20 20 18 16 16 17 18 17 15 14 12 11 11 11 10 10 11 12 12 13 13 13 14 15 15 16 16 17 17 19 20 20 21 21 21 21 22 23 23 24 24 24 25 25 25
23 22 22 22 22 21 20 20 20 20 21 22 22 22 21 20 20 19 18 16 15 15 16 16 15 14 12 10 11 11 10 10 11 12 12 12 12 13 13 15 16 15 16 16 18 18 19 20 21 22 22 22 22 23 24 25 25 25 26 26 26 26
22 22 23 22 21 20 20 20 20 20 21 22 23 23 22 21 19 18 17 15 14 14 14 14 12 11 10 10 11 11 10 11 12 12 11 12 12 14 14 15 16 16 16 17 18 19 20 21 22 23 24 24 24 24 26 26 26 27 28 28 28 28
22 22 22 23 23 22 20 19 19 20 22 23 23 23 22 20 18 16 16 14 14 13 12 11 10 10 10 11 11 10 11 11 12 11 12 12 13 14 16 17 18 18 19 19 20 21 22 23 23 24 25 26 26 26 27 27 27 27 28 29 29 29
21 20 21 22 23 21 19 18 18 20 22 21 21 20 19 18 16 14 15 15 15 14 12 10 10 11 11 11 10 10 11 12 12 12 12 13 14 15 17 18 19 21 21 22 22 22 23 24 24 25 26 26 27 27 28 28 28 28 28 28 29 29
19 19 20 20 19 18 17 16 17 20 21 19 17 16 16 14 13 13 13 15 15 14 12 12 11 11 11 11 10 11 12 12 12 13 13 14 15 17 18 20 21 22 23 23 23 23 24 25 26 26 26 26 27 27 28 29 29 29 29 29 29 29
19 19 19 19 17 16 16 15 17 19 19 17 15 15 14 12 12 11 10 11 11 12 12 12 11 11 11 11 11 11 13 13 14 14 15 15 16 18 19 21 22 23 24 24 25 25 25 25 26 26 27 27 27 27 27 27 28 29 29 30 30 30
19 19 18 17 17 16 16 16 16 16 16 14 13 14 13 11 11 11 9 8 10 11 11 11 11 12 12 12 12 13 14 14 15 15 15 16 18 19 21 22 23 24 25 26 27 28 28 27 27 27 27 27 27 27 27 27 27 28 29 29 30 31
16 17 16 15 15 16 15 14 13 13 12 11 11 12 11 11 10 9 8 10 11 11 10 11 12 13 12 12 13 14 14 15 15 16 16 17 19 21 22 23 24 24 25 27 28 29 30 30 30 29 29 29 29 29 29 28 28 28 28 28 29 30
15 16 15 13 13 13 13 11 10 9 8 8 9 9 10 9 7 7 10 11 10 10 11 12 13 13 12 13 14 14 14 15 16 17 17 19 20 22 23 23 24 25 26 27 28 29 30 30 31 32 32 33 33 33 33 32 32 31 30 29 28 28
15 16 16 14 12 13 12 11 9 8 8 9 9 9 8 6 7 9 11 11 10 10 12 13 13 12 13 14 14 14 15 16 17 18 19 20 21 22 23 24 24 25 26 27 28 29 29 30 31 33 34 35 36 37 38 38 38 38 38 36 34 33
13 13 15 14 13 14 13 12 11 10 10 10 9 8 8 8 10 11 12 11 11 12 13 13 13 13 15 15 15 15 15 17 18 18 19 21 22 24 24 25 25 26 27 28 29 30 31 32 33 34 35 36 38 39 40 41 41 42 43 43 42 40
12 11 12 13 14 14 13 12 12 10 9 8 9 10 10 11 12 13 12 12 11 13 13 13 14 14 15 15 15 16 17 18 18 19 20 21 24 25 26 26 27 28 29 30 31 33 34 35 36 36 37 38 39 40 41 41 42 43 43 43 43 42
11 9 9 11 13 14 12 10 10 10 9 9 10 12 13 13 13 13 13 12 13 14 14 14 15 15 16 16 16 17 18 19 20 21 22 23 25 26 27 28 29 31 32 33 34 35 36 37 37 38 38 39 40 40 41 42 42 43 43 43 43 42
12 10 9 11 13 14 12 9 9 10 10 11 13 14 14 13 13 13 14 14 14 14 14 15 16 16 16 17 17 18 19 20 22 23 24 25 27 28 29 30 32 33 34 35 36 37 38 38 38 38 39 39 40 40 41 42 43 44 44 43 43 42
13 12 11 12 13 13 11 9 9 10 12 13 14 14 13 12 13 14 15 15 14 14 15 16 17 17 17 18 19 20 21 22 23 25 26 27 29 30 31 32 34 35 35 36 38 38 38 38 39 39 40 40 40 41 42 43 44 44 44 44 43 42
13 12 11 12 12 11 10 9 10 11 13 14 13 13 12 12 13 14 15 15 14 15 17 17 17 18 18 20 20 21 23 24 25 26 28 29 31 32 33 34 35 36 37 38 39 39 39 40 40 40 40 41 41 42 43 44 44 44 44 43 43 42
12 12 11 10 10 10 10 10 11 11 12 12 12 12 11 12 13 15 15 15 16 17 17 18 18 19 20 20 21 22 24 25 27 28 29 31 32 33 34 36 37 38 38 39 40 40 41 41 41 41 41 42 42 43 44 44 45 44 44 43 42 42
11 11 10 10 10 10 10 10 10 10 10 10 11 11 12 13 14 15 16 16 17 17 18 18 19 19 20 21 22 24 25 27 28 30 31 32 34 35 36 37 38 39 39 40 41 41 41 41 42 42 42 43 43 44 44 44 44 43 43 43 44 44

ECMWFFLT2_500_spd_117.txt.gz
Wind_Speed
22 24 24 24 24 23 22 21 21 19 16 15 14 15 15 15 15 14 14 13 12 11 10 10 12 14 15 15 14 12 11 10 9 8 8 8 8 8 8 8 8 8 7 7 6 5 5 5 5 6 6 7 8 9 11 12 12 11 10 9 10 11
22 23 23 23 23 22 22 22 22 20 17 16 15 15 15 15 15 15 14 13 12 11 9 10 11 12 14 14 13 11 10 9 9 9 9 9 9 9 9 8 8 8 8 7 7 6 6 6 6 7 8 8 9 9 11 12 12 11 11 10 10 11
22 22 22 22 21 22 23 23 22 20 18 17 16 15 15 16 16 15 15 14 12 11 9 10 11 12 12 13 13 11 10 10 9 9 9 9 9 9 9 9 9 9 8 7 7 7 7 7 8 8 9 9 9 9 10 12 13 12 12 11 11 11
22 21 22 21 21 22 23 23 22 19 18 17 16 15 15 16 16 16 15 14 13 11 10 10 11 11 12 12 12 12 11 11 10 10 10 10 9 9 9 9 9 8 8 7 7 7 7 7 8 8 9 10 9 9 9 11 13 13 13 12 12 11
21 21 21 21 22 23 23 22 20 18 18 17 15 15 16 17 17 17 16 14 13 12 11 11 11 11 11 12 12 12 12 12 11 10 10 10 9 9 8 8 8 8 8 8 8 8 8 8 9 9 9 10 10 10 9 9 11 13 13 13 12 12
22 23 22 21 23 22 21 19 17 17 17 16 15 16 16 17 18 17 16 14 13 12 12 11 11 11 11 12 12 12 12 12 11 11 10 9 8 8 8 8 8 9 9 9 9 9 9 10 10 10 10 10 10 11 10 10 11 12 12 13 13 13
24 26 26 24 23 21 18 16 16 16 15 15 15 16 17 18 18 17 16 15 13 12 12 12 12 12 12 12 12 11 11 11 10 10 9 8 8 8 9 9 10 10 10 10 10 10 10 10 11 11 11 11 12 12 12 12 11 11 12 13 14 14
27 30 29 28 25 22 19 16 15 14 14 15 16 17 18 18 18 16 16 15 14 13 12 12 12 12 12 12 11 11 11 10 9 8 8 8 8 9 10 10 10 10 10 10 10 10 10 11 12 13 13 12 12 13 13 13 12 12 13 14 15 16
28 28 27 27 26 23 21 17 15 15 15 16 17 17 18 18 17 16 16 16 15 13 13 13 13 13 13 12 12 11 10 9 8 7 7 7 7 7 8 8 9 9 10 10 10 10 10 11 13 14 14 13 13 13 13 13 14 14 14 15 15 16
18 17 18 20 21 20 19 16 16 17 17 17 17 17 17 17 17 15 15 15 15 14 13 13 13 13 13 13 12 11 11 10 9 7 6 6 6 6 6 7 7 8 8 9 9 10 11 11 12 14 15 14 13 13 13 13 14 15 15 15 16 16
17 17 17 16 18 19 17 15 16 17 18 18 18 18 18 18 17 15 15 15 14 14 14 14 13 13 13 13 12 12 12 11 9 7 6 6 6 5 6 6 6 7 8 9 10 10 11 11 11 13 14 14 14 14 14 13 14 15 16 16 17 17
21 22 20 18 20 21 18 15 15 17 19 20 19 19 18 18 17 16 15 15 14 14 13 14 14 14 14 13 13 13 12 11 10 8 7 7 6 6 6 7 7 8 9 10 11 12 12 12 12 13 13 14 14 15 15 14 14 15 15 16 17 17
20 20 20 19 20 23 21 17 15 17 20 20 20 19 18 17 17 16 15 15 15 14 14 14 15 16 15 14 14 13 12 12 11 10 9 8 8 8 8 8 9 9 10 11 12 13 13 13 13 13 14 15 15 16 16 16 16 15 15 16 17 17
18 19 19 18 17 20 21 18 15 17 19 20 20 19 18 18 17 16 16 15 15 15 16 16 17 17 16 16 15 14 14 14 13 11 10 11 11 10 10 10 10 11 11 12 13 14 15 15 14 15 15 16 17 17 18 18 18 18 18 18 18 19
19 18 19 17 16 16 17 17 17 18 19 19 19 18 18 18 17 16 16 16 16 17 18 18 18 17 17 17 15 15 16 16 15 13 12 13 13 12 12 12 11 12 13 13 14 15 16 16 16 16 16 17 18 18 19 20 21 21 21 21 21 21
19 19 19 18 17 17 16 17 18 19 19 19 18 18 17 17 17 16 16 17 18 17 17 18 19 18 18 18 16 17 17 16 15 14 13 14 13 13 13 12 12 12 13 14 15 16 17 17 17 17 17 18 18 19 20 21 22 22 22 23 23 24
19 20 20 19 19 20 19 17 17 19 19 19 18 17 17 16 16 16 16 17 18 17 16 17 19 18 18 18 17 18 17 16 14 14 13 13 13 13 13 12 12 12 13 14 15 16 17 18 17 17 18 18 19 20 20 21 23 23 24 24 25 25
19 20 21 20 18 18 18 17 16 17 18 18 18 17 16 16 16 16 16 15 17 17 17 17 19 19 19 18 19 19 17 15 14 14 13 13 13 13 13 12 12 13 14 15 16 17 18 18 18 18 18 19 20 21 22 23 24 25 26 26 26 27
19 19 19 18 17 16 17 18 18 18 19 19 18 16 16 15 16 16 16 15 16 18 18 18 18 19 19 19 19 18 16 15 14 14 13 13 13 13 13 12 12 14 15 16 17 18 19 20 20 20 20 21 22 23 23 24 25 26 27 27 27 28
18 18 17 17 17 17 18 19 19 19 19 19 17 16 15 15 16 16 16 16 16 17 18 18 18 18 19 18 17 15 15 15 14 14 14 13 13 13 13 13 13 14 16 17 18 19 21 21 21 21 21 22 23 24 25 26 27 27 28 28 28 28
18 18 18 17 18 19 19 19 19 19 20 18 17 16 15 15 16 17 17 17 17 17 17 17 18 18 17 16 15 15 15 14 14 14 14 14 13 14 14 14 14 14 16 18 20 21 22 22 23 22 22 22 24 25 26 27 27 28 28 28 28 28
18 18 18 18 19 20 20 20 20 21 20 18 17 16 15 16 17 18 17 17 17 17 16 17 17 16 15 15 15 15 15 14 14 14 14 14 15 15 15 15 15 15 17 19 21 22 22 22 23 23 23 24 24 25 26 27 28 28 28 28 29 29
18 19 19 19 19 20 21 21 21 21 20 18 17 15 15 16 17 17 16 16 16 15 15 15 14 14 14 14 15 15 14 14 15 14 14 15 16 17 16 16 16 17 19 20 21 22 22 22 22 23 24 25 26 27 27 27 28 28 27 27 28 29
18 18 19 19 19 20 20 20 19 19 18 16 15 15 15 15 15 15 15 15 15 15 15 15 13 14 14 14 14 15 15 15 15 15 15 16 17 17 17 17 18 19 20 21 21 22 22 23 23 24 24 25 25 26 28 28 29 29 29 28 28 29
17 17 18 19 19 21 20 19 17 16 15 15 15 15 14 14 13 14 14 14 15 16 16 16 15 15 15 15 15 15 15 15 15 16 17 17 17 17 17 18 20 21 22 22 22 22 22 23 24 25 25 26 25 25 27 28 29 30 31 31 31 32
17 18 20 20 21 21 20 18 16 15 15 15 15 14 13 13 13 13 13 13 14 15 16 16 16 16 15 16 16 16 16 16 16 16 16 17 17 17 18 20 22 23 23 23 23 23 22 22 23 24 25 26 26 27 27 28 29 30 31 32 33 34
18 20 21 20 19 19 18 17 16 16 16 16 14 12 12 13 14 13 13 13 13 14 15 16 16 16 16 17 17 16 16 16 16 16 17 18 18 19 20 21 23 24 24 24 25 25 24 25 25 25 26 27 28 28 29 29 30 31 31 32 33 35
19 21 21 18 16 17 16 14 15 16 15 14 13 12 12 14 14 14 15 14 13 12 13 14 15 16 16 16 16 16 16 16 17 17 18 19 20 21 22 23 24 24 25 25 25 26 27 27 28 29 30 31 31 31 31 32 32 33 33 32 32 33
18 19 19 17 15 16 16 14 13 13 14 14 13 13 13 14 14 15 16 14 13 12 13 13 14 15 16 16 16 16 17 18 18 19 20 21 21 22 22 23 24 25 25 25 26 27 28 29 31 32 33 35 35 35 35 36 36 36 36 35 34 34
18 18 18 17 16 15 14 13 13 13 13 13 13 14 16 16 16 15 14 13 12 12 12 13 15 16 16 16 16 17 18 19 19 20 21 22 22 22 23 23 24 25 25 26 27 29 30 31 33 34 36 37 38 38 39 39 39 39 39 40 39 38
17 17 16 16 16 15 13 12 13 13 13 13 14 16 16 16 15 14 12 11 11 12 13 14 15 16 16 16 17 18 19 20 20 21 22 23 23 23 23 23 24 25 27 28 29 31 33 34 36 38 39 39 40 40 41 41 41 41 41 42 41 40
17 16 15 15 15 15 14 15 15 15 15 15 15 15 15 14 13 11 10 10 11 12 13 15 15 16 16 17 18 18 19 20 21 22 22 23 23 23 23 25 26 27 29 30 32 34 36 37 39 40 41 41 42 43 43 44 44 44 43 43 42 40
17 15 14 15 15 15 16 16 16 16 16 15 14 14 14 13 12 10 9 10 11 13 13 14 15 16 17 18 19 20 20 21 21 22 22 22 23 24 25 27 28 29 31 32 34 36 38 40 41 42 43 44 45 45 45 46 46 45 44 43 41 40
16 15 14 14 15 16 16 17 16 15 14 14 14 13 11 11 10 9 9 10 11 12 13 14 16 17 18 19 20 21 21 21 21 22 22 23 25 26 27 28 29 31 33 34 36 38 40 42 42 43 44 45 46 46 46 45 45 44 43 42 41 40
16 16 16 16 16 16 17 16 14 13 13 13 12 10 9 10 10 10 10 10 11 12 14 16 17 18 19 20 21 21 21 21 21 22 24 26 27 28 29 30 31 32 34 36 38 40 42 42 43 44 45 45 45 45 44 43 42 42 41 41 41 41
17 16 17 17 16 16 17 16 14 12 12 12 10 9 9 10 10 11 11 11 12 14 15 17 18 19 20 20 20 20 20 21 23 24 26 28 28 29 30 31 32 34 36 38 40 42 42 43 44 44 45 44 44 43 42 41 41 41 42 42 42 43
15 16 16 16 16 15 15 15 13 12 11 10 9 9 9 10 11 12 12 13 14 15 16 18 19 19 19 18 18 19 21 23 25 26 28 29 29 30 31 32 34 36 38 40 41 42 43 43 44 44 44 43 42 42 41 42 42 43 44 44 44 44

ECMWFFLT2_500_spd_123.txt.gz
Wind_Speed
21 20 19 18 17 16 16 16 16 17 16 15 15 15 15 15 14 13 13 12 11 10 8 7 6 5 5 6 7 8 9 10 9 9 8 7 6 5 5 5 5 5 5 6 5 6 6 6 6 7 9 10 11 11 11 11 10 10 10 10 10 10
22 20 19 18 17 16 16 16 17 17 16 15 15 14 14 14 13 13 13 12 11 10 9 8 6 5 5 5 6 7 8 9 9 9 9 8 7 6 6 5 5 5 6 6 6 6 7 7 7 7 7 9 10 10 10 10 10 10 9 9 9 9
21 19 19 18 17 16 16 16 17 17 16 15 14 14 14 13 12 13 13 12 10 10 10 9 7 6 6 5 6 6 7 7 8 9 9 9 8 7 6 5 5 6 6 6 7 7 7 7 7 7 7 7 8 8 9 9 9 9 9 9 9 9
16 16 17 18 18 17 16 16 17 17 16 15 14 14 13 12 12 13 13 12 10 10 11 10 9 8 7 6 6 6 6 7 8 9 9 9 8 7 6 6 6 6 6 7 7 7 7 7 7 7 7 6 6 7 7 8 8 9 9 9 10 10
14 14 15 17 19 17 16 16 16 16 16 16 15 14 12 11 12 13 13 11 10 11 12 11 10 10 9 8 7 7 7 7 7 8 9 9 9 8 7 6 7 7 7 7 8 8 8 8 8 8 7 6 6 6 6 7 7 8 9 9 10 11
13 12 13 17 19 18 17 17 17 17 17 16 15 13 12 12 13 13 12 11 10 11 12 12 11 11 11 10 9 8 8 7 7 8 9 9 9 9 8 7 7 8 8 8 8 9 9 9 8 7 7 7 6 6 6 7 7 8 9 9 10 11
13 13 15 17 19 19 19 19 19 19 19 18 16 14 14 13 14 14 12 10 11 12 13 12 12 12 12 12 11 10 9 8 8 8 9 9 9 9 8 8 8 8 8 8 8 8 8 7 7 7 7 7 7 7 7 8 9 9 10 11 12 12
14 17 19 19 19 19 19 20 21 21 21 19 17 16 15 14 14 14 11 11 12 13 13 12 12 13 13 13 12 11 11 9 8 8 9 9 9 9 9 9 8 8 8 8 7 7 7 7 7 7 7 8 8 9 9 9 10 11 11 12 13 14
16 19 21 20 19 19 17 16 17 19 21 19 18 18 16 15 15 14 12 11 13 13 13 12 13 13 14 14 13 13 12 10 9 9 9 9 9 9 9 9 8 7 7 8 7 7 7 7 8 8 8 9 9 10 10 10 11 12 13 14 15 15
19 21 21 19 17 16 14 13 14 16 19 20 19 19 18 16 15 15 13 12 13 13 13 12 12 13 14 14 14 14 13 12 11 11 11 10 10 9 9 8 8 7 7 7 7 7 7 8 9 9 9 10 11 11 11 12 13 14 15 16 16 17
19 21 19 17 15 16 17 18 18 18 19 19 20 20 19 17 16 15 14 13 14 13 13 12 12 13 14 15 15 14 14 13 13 13 13 12 11 10 9 9 9 8 8 9 8 8 9 10 10 11 11 12 13 13 14 14 15 16 17 18 19 19
18 19 19 17 17 18 20 22 21 20 19 19 19 20 20 19 17 16 15 14 14 14 14 13 13 13 14 15 15 15 14 14 15 15 15 14 13 11 11 11 11 10 11 11 10 10 11 12 12 12 13 14 14 14 15 16 17 18 18 19 20 20
17 18 18 18 18 19 20 20 20 20 19 19 20 21 21 20 19 18 16 16 15 15 14 13 13 14 15 15 15 15 15 16 16 17 16 16 14 13 13 13 14 13 13 13 12 12 12 13 14 14 14 15 15 15 16 17 18 18 19 20 21 21
17 18 18 18 18 19 19 19 19 19 20 20 21 22 22 22 21 20 18 17 16 16 15 15 15 15 15 15 16 16 17 17 18 18 17 17 16 16 16 16 17 17 16 14 13 13 13 14 14 15 15 16 16 17 17 18 18 19 20 21 22 23
17 18 18 17 17 17 18 18 18 19 20 21 22 23 24 23 23 21 19 18 17 17 16 17 17 17 17 17 17 18 18 18 18 19 18 17 18 19 19 18 19 18 16 15 14 14 14 14 15 16 16 16 17 17 18 19 20 21 22 23 24 25
17 17 17 16 15 15 16 17 18 18 19 21 22 23 23 24 24 22 20 19 18 17 17 18 19 19 19 19 19 19 19 19 19 19 19 19 19 20 19 19 18 17 16 15 15 14 14 14 15 16 16 17 18 19 20 21 23 24 24 24 25 26
17 18 18 17 16 15 15 16 17 18 19 20 20 21 22 23 24 23 21 20 19 17 17 18 19 20 20 20 20 20 19 19 19 19 19 19 19 19 19 19 18 16 16 15 14 14 14 14 15 16 17 18 20 21 22 24 25 25 25 25 26 26
17 18 18 18 18 18 18 17 17 18 19 20 20 21 22 23 24 23 22 21 19 18 19 19 20 20 20 20 20 19 18 18 18 18 19 19 19 19 19 18 17 16 15 14 14 14 14 15 16 18 19 20 22 23 24 24 25 26 26 26 27 27
17 18 18 18 19 19 19 18 18 18 19 20 22 22 23 22 22 23 23 22 21 21 21 21 21 21 20 19 18 18 18 18 18 18 19 19 19 20 19 18 17 16 15 14 14 15 16 17 18 19 21 22 22 24 25 25 26 26 27 27 28 28
18 18 18 18 18 18 19 18 17 18 19 21 23 24 23 21 21 22 22 23 23 23 24 23 22 21 19 18 17 17 18 18 18 19 19 19 19 19 18 18 17 15 14 15 15 16 18 19 20 21 22 23 24 24 25 26 26 27 27 28 28 28
18 18 18 17 17 17 17 17 17 18 20 22 22 22 22 20 20 22 23 23 23 23 23 22 21 20 19 17 16 17 18 18 18 18 18 18 18 17 17 16 15 15 15 16 17 18 20 21 22 22 22 23 25 26 26 27 27 28 28 28 29 29
18 17 17 16 16 16 17 17 17 18 19 19 19 19 20 19 19 22 23 23 22 23 23 22 21 21 19 18 17 18 19 18 17 17 18 18 17 16 15 15 14 15 15 16 17 19 20 22 23 24 24 24 25 26 27 28 28 28 29 29 30 31
15 15 15 15 16 17 17 18 19 19 18 17 18 19 19 19 20 21 22 23 24 25 24 23 23 22 20 19 18 19 18 17 17 18 18 16 15 14 13 13 14 15 16 17 18 20 21 22 24 25 27 27 27 28 28 28 28 29 30 31 31 32
13 14 14 15 16 17 18 18 19 19 17 18 19 20 19 20 21 22 23 23 25 25 25 25 25 23 20 19 19 19 18 17 18 17 16 14 12 12 12 13 13 14 16 17 19 20 22 23 25 26 27 28 30 30 31 31 31 31 32 33 33 34
15 15 14 15 16 16 18 18 18 18 18 19 21 22 22 22 22 24 25 26 26 25 25 25 23 21 19 19 19 18 18 17 16 14 13 11 11 11 12 13 14 15 16 17 19 21 23 24 26 27 27 28 29 30 31 32 33 34 35 36 36 35
16 14 15 16 16 17 18 18 18 18 19 20 22 24 23 22 23 25 25 26 25 25 24 23 20 19 19 19 19 18 17 15 13 11 11 11 11 11 13 14 15 16 17 18 20 22 23 25 26 26 27 28 29 30 31 32 33 34 35 36 37 37
16 16 16 16 16 17 18 17 18 19 20 20 22 24 24 25 25 24 22 23 24 24 23 20 18 18 18 18 18 17 15 14 12 10 10 11 11 13 14 15 16 18 19 20 22 23 24 24 25 26 27 28 29 30 31 32 32 34 35 35 36 37
17 17 17 15 16 17 17 18 19 20 21 21 22 23 24 26 26 24 22 22 23 22 21 19 18 18 17 17 18 16 14 12 10 10 10 11 12 14 15 17 18 19 21 22 23 24 24 24 25 26 27 27 28 29 29 30 31 32 33 34 35 37
17 18 17 15 16 17 18 19 19 20 21 23 23 23 23 24 25 24 24 23 23 21 20 19 19 18 17 18 18 15 11 9 9 10 11 12 13 15 16 18 19 21 22 23 24 24 24 25 26 26 27 27 28 28 29 30 31 32 33 35 36 37
18 17 16 17 18 18 18 18 18 19 21 23 23 22 22 22 24 25 25 24 22 20 19 19 18 18 18 18 16 13 9 9 9 10 12 13 14 16 18 19 21 22 23 23 24 25 25 26 27 27 27 28 29 30 31 32 33 34 35 36 37 38
18 16 16 17 18 17 17 18 18 19 21 21 20 20 20 21 23 23 22 22 20 19 19 18 16 16 15 15 13 11 10 9 10 12 13 15 16 18 19 21 21 22 23 23 24 25 26 27 28 28 28 29 31 32 33 35 35 36 37 38 39 39
18 18 17 17 18 18 18 18 18 20 21 20 19 19 19 21 22 21 20 19 19 19 18 16 14 13 12 12 11 10 9 10 11 13 15 16 18 19 20 21 21 22 22 23 24 25 26 27 28 29 30 31 32 34 35 36 37 37 38 38 38 37
19 20 19 17 18 19 19 19 18 18 19 19 19 18 18 20 21 21 21 18 18 18 16 14 12 12 11 11 10 10 10 12 13 15 16 18 19 20 20 21 21 22 22 23 25 26 27 28 29 30 31 32 34 35 36 36 37 37 37 37 37 37
20 20 20 17 17 18 18 18 17 16 17 18 19 18 18 20 20 20 19 18 18 17 15 13 12 11 11 10 10 11 12 13 15 16 18 19 19 20 20 20 21 22 23 24 25 27 28 29 30 31 32 33 34 35 36 37 37 37 36 36 36 37
20 20 19 18 17 17 16 16 15 15 17 19 20 19 19 20 20 19 19 18 17 15 14 13 12 11 11 11 11 12 13 15 16 17 18 19 19 19 20 20 21 23 24 26 27 28 29 30 31 32 33 34 35 36 37 37 37 36 35 35 35 36
20 19 19 19 18 16 16 15 14 15 16 17 17 17 16 16 17 18 17 15 14 14 14 13 12 12 11 12 13 14 14 16 17 17 18 18 18 19 20 21 22 24 25 27 28 29 30 31 32 33 34 35 36 37 37 37 36 35 34 34 36 38
19 18 19 20 19 17 16 15 14 14 14 14 13 13 13 14 15 15 14 14 14 14 13 12 12 12 12 13 13 14 15 16 16 17 17 17 18 19 20 22 23 25 26 27 29 30 31 32 33 34 35 36 37 37 37 36 35 34 34 36 38 40